EW2323 Weather Reports


Display with metric or nautical units.
time (UTC)temp
F
wind
direction
speed
MPH
gust
MPH
rain 1hr
in
rain 24hr
in
rain mn
in
humidity
%
barometer
mb
20260906093032 76 74 0.0 0.0 0.00 0.00 0.00 88 1011.0
20260906091534 76 74 0.0 0.0 0.00 0.00 0.00 88 1011.0
20260906090028 77 128 0.0 0.0 0.00 0.00 0.00 87 1010.8
20260906084533 77 128 0.0 0.0 0.00 0.00 0.00 86 1010.9
20260906083027 77 128 0.0 0.0 0.00 0.00 0.00 85 1010.9
20260906081534 77 128 0.0 0.0 0.00 0.00 0.00 85 1010.9
20260906080026 77 155 0.0 0.0 0.00 0.00 0.00 86 1010.9
20260906074526 77 155 0.0 0.0 0.00 0.00 0.00 86 1010.8
20260906073023 77 155 0.0 0.0 0.00 0.00 0.00 87 1010.7
20260906071520 77 155 0.0 0.0 0.00 0.00 0.00 87 1010.7
20260906070019 78 155 0.0 0.0 0.00 0.00 0.00 88 1010.9
20260906064524 78 155 0.0 0.0 0.00 0.00 0.00 88 1011.0
20260906063016 79 155 0.0 0.0 0.00 0.00 0.00 88 1011.0
20260906061515 79 155 0.0 0.0 0.00 0.00 0.00 88 1011.3
20260906060012 79 155 0.0 0.0 0.00 0.00 0.00 88 1011.1
20260906054510 79 155 0.0 0.0 0.00 0.00 0.00 87 1010.9
20260906053008 80 155 0.0 0.0 0.00 0.00 0.00 86 1010.9
20260906051508 80 155 0.0 0.0 0.00 0.00 0.00 86 1010.8
20260906050012 80 155 0.0 0.0 0.00 0.00 0.00 86 1011.0
20260906044506 80 155 0.0 0.0 0.00 0.00 0.00 86 1011.0
20260906043007 80 76 0.0 0.0 0.00 0.00 0.00 85 1010.8
20260906041503 80 134 0.0 0.0 0.00 0.00 0.00 84 1010.4
20260906040059 80 134 0.0 0.0 0.00 0.00 0.00 82 1010.4
20260906034601 81 134 0.0 0.0 0.00 0.00 0.00 79 1010.4
20260906033058 81 134 0.0 0.0 0.00 0.00 0.00 78 1010.4
20260906031622 81 134 0.0 0.0 0.00 0.00 0.00 77 1010.5
20260906030058 82 134 0.0 0.0 0.00 0.00 0.00 75 1010.5
20260906024559 82 134 0.0 0.0 0.00 0.00 0.00 75 1010.5
20260906023109 83 134 0.0 0.0 0.00 0.00 0.00 74 1010.5
20260906021556 84 134 0.0 0.0 0.00 0.00 0.00 72 1010.4
20260906020100 84 134 0.0 0.0 0.00 0.00 0.00 69 1010.1
20260906014555 85 134 0.0 0.0 0.00 0.00 0.00 70 1009.9
20260906013055 86 134 0.0 0.0 0.00 0.00 0.00 67 1009.6
20260906011603 87 134 0.0 0.0 0.00 0.00 0.00 66 1009.6
20260906010054 88 134 0.0 0.0 0.00 0.00 0.00 65 1009.2
20260906004559 88 134 0.0 0.0 0.00 0.00 0.00 65 1009.1
20260906003053 89 134 0.0 0.0 0.00 0.00 0.00 64 1009.2
20260906001553 90 111 0.0 3.0 0.00 0.00 0.00 62 1009.7
20260906000059 90 351 0.0 0.0 0.00 0.00 0.00 62 1009.7
20260905234554 91 351 0.0 0.0 0.00 0.00 0.00 60 1009.9
20260905233054 92 351 0.0 0.0 0.00 0.00 0.00 59 1009.8
20260905231551 93 351 0.0 0.0 0.00 0.00 0.00 58 1009.9
20260905230050 93 351 0.0 5.0 0.00 0.00 0.00 55 1009.5
20260905224550 94 356 0.0 1.0 0.00 0.00 0.00 53 1009.4
20260905223048 94 347 0.0 5.0 0.00 0.00 0.00 52 1009.1
20260905221601 95 346 0.0 3.0 0.00 0.00 0.00 54 1009.2
20260905220048 95 335 0.0 1.0 0.00 0.00 0.00 54 1009.2
20260905214548 95 347 1.0 5.0 0.00 0.00 0.00 54 1009.5
20260905213045 95 351 0.0 1.0 0.00 0.00 0.00 55 1009.4
20260905211546 95 1 1.0 4.0 0.00 0.00 0.00 55 1009.4
20260905210046 96 339 0.0 2.0 0.00 0.00 0.00 53 1009.5
20260905204543 96 344 0.0 5.0 0.00 0.00 0.00 53 1009.7
20260905203039 96 9 0.0 3.0 0.00 0.00 0.00 53 1010.1
20260905201537 96 345 0.0 2.0 0.00 0.00 0.00 53 1010.2
20260905200037 96 351 0.0 4.0 0.00 0.00 0.00 52 1010.4
20260905194530 95 70 0.0 2.0 0.00 0.00 0.00 52 1010.5
20260905193027 95 351 0.0 5.0 0.00 0.00 0.00 52 1010.8
20260905191527 95 46 0.0 0.0 0.00 0.00 0.00 53 1010.9
20260905190029 95 342 0.0 4.0 0.00 0.00 0.00 53 1011.2
20260905184520 95 129 0.0 3.0 0.00 0.00 0.00 54 1011.4
20260905183019 95 119 0.0 3.0 0.00 0.00 0.00 54 1011.7
20260905181517 94 102 0.0 3.0 0.00 0.00 0.00 54 1011.8
20260905180018 94 237 0.0 1.0 0.00 0.00 0.00 52 1011.9
20260905174513 93 319 0.0 1.0 0.00 0.00 0.00 54 1012.0
20260905173008 92 94 2.0 5.0 0.00 0.00 0.00 55 1012.1
20260905171504 91 102 0.0 6.0 0.00 0.00 0.00 58 1012.3
20260905170004 90 130 0.0 6.0 0.00 0.00 0.00 59 1012.5
20260905164606 90 119 0.0 9.0 0.00 0.00 0.00 60 1012.9
20260905163056 89 103 1.0 2.0 0.00 0.00 0.00 62 1013.2
20260905161551 88 138 0.0 6.0 0.00 0.00 0.00 64 1013.2
20260905160055 87 113 1.0 6.0 0.00 0.00 0.00 65 1013.2
20260905154550 86 136 1.0 8.0 0.00 0.00 0.00 67 1013.3
20260905153043 87 153 1.0 5.0 0.00 0.00 0.00 65 1013.3
20260905151539 85 151 0.0 5.0 0.00 0.00 0.00 68 1013.4
20260905150035 83 113 0.0 4.0 0.00 0.00 0.00 72 1013.5
20260905144531 82 136 0.0 4.0 0.00 0.00 0.00 76 1013.7
20260905143029 81 283 0.0 7.0 0.00 0.00 0.00 79 1013.7
20260905141525 80 158 0.0 5.0 0.00 0.00 0.00 82 1013.9
20260905140022 78 177 0.0 5.0 0.00 0.00 0.00 87 1013.9
20260905134517 77 137 0.0 0.0 0.00 0.00 0.00 88 1014.2
20260905133023 77 136 0.0 6.0 0.00 0.00 0.00 87 1014.3
20260905131515 79 7 0.0 2.0 0.00 0.00 0.00 85 1014.5
20260905130013 79 7 0.0 3.0 0.00 0.00 0.00 84 1014.6
20260905124511 79 127 0.0 0.0 0.00 0.00 0.00 86 1013.5
20260905123009 78 128 0.0 1.0 0.00 0.00 0.00 88 1013.4
20260905121506 78 356 0.0 0.0 0.00 0.00 0.00 91 1013.1
20260905120007 78 356 0.0 0.0 0.00 0.00 0.00 91 1013.4
20260905114610 78 356 0.0 0.0 0.00 0.00 0.00 92 1013.0
20260905113100 77 346 0.0 0.0 0.00 0.00 0.00 92 1012.9
20260905111651 77 346 0.0 2.0 0.00 0.00 0.00 93 1012.6
20260905110056 77 351 0.0 0.0 0.00 0.00 0.00 93 1012.1
20260905104555 78 351 0.0 0.0 0.00 0.00 0.00 92 1011.8
20260905103101 78 351 0.0 0.0 0.00 0.00 0.00 92 1011.7
20260905101552 78 351 0.0 0.0 0.00 0.00 0.00 92 1011.9
20260905100057 78 351 0.0 0.0 0.00 0.00 0.00 91 1011.9
20260905094550 78 351 0.0 0.0 0.00 0.00 0.00 91 1011.9